ECMWFFLT1_925_rhum_027.txt.gz
RH
90 89 86 82 78 74 71 71 74 76 78 81 85 91 96 90 81 81 84 86 93 98 100 100 100 99 96 96 98 96 95 93 90 85 76 70 70 71 70 62 54 55 49 36 31 33 35 34 35 39 40 40 42 42 42 41 39 36 34 33 31 30 30
87 91 91 84 79 76 75 76 76 75 76 79 81 86 92 92 87 86 85 85 92 97 99 100 100 100 97 97 98 96 96 95 91 88 81 72 65 62 64 63 57 57 55 42 32 32 35 35 34 37 40 40 40 41 42 41 41 39 36 36 34 31 31
82 85 87 85 79 74 73 72 70 72 74 74 76 79 86 91 91 91 89 86 88 93 98 100 100 100 99 98 98 96 95 96 93 89 84 77 69 61 58 57 54 57 61 50 35 33 36 36 36 36 38 39 39 38 41 42 42 42 40 39 39 36 33
77 78 81 88 87 81 78 75 70 73 75 72 75 78 83 91 94 92 89 84 80 83 91 98 99 98 97 97 98 96 94 95 95 92 87 81 75 67 60 56 51 54 61 55 42 37 37 36 36 37 36 39 41 41 43 46 45 44 45 45 45 43 39
72 69 71 79 82 78 76 76 74 74 73 72 75 79 83 89 93 94 93 87 80 76 78 86 91 94 95 93 93 93 92 91 91 92 90 85 79 73 67 63 58 55 59 58 49 42 40 38 37 39 39 40 44 46 50 52 50 48 49 49 49 49 43
81 76 73 72 71 68 65 66 68 69 69 70 73 75 80 84 87 90 93 91 85 79 75 76 79 85 90 91 89 88 87 87 86 87 88 85 81 76 71 68 65 62 63 63 56 47 44 42 39 40 44 46 45 47 53 57 56 54 54 54 54 50 43
85 85 84 81 77 72 66 63 63 64 66 71 73 72 73 76 80 86 94 94 89 83 75 72 75 80 85 88 89 85 83 82 81 81 81 81 79 76 72 69 68 67 68 70 64 54 47 45 43 41 44 49 48 47 51 56 60 62 60 57 53 47 42
78 80 83 85 83 78 73 69 65 64 66 72 77 75 73 74 75 78 88 94 94 89 78 72 77 81 81 83 87 86 83 80 78 77 76 75 74 73 71 70 70 70 71 73 70 61 52 49 46 43 45 50 52 51 52 53 56 59 59 56 52 48 46
77 80 83 84 81 78 80 82 77 72 72 77 81 81 79 80 78 76 79 83 88 92 88 81 80 80 77 78 82 85 85 82 79 77 75 73 71 70 70 70 70 70 71 73 73 66 58 54 51 47 48 53 54 52 52 53 53 53 53 53 54 55 52
82 87 89 89 89 87 90 93 87 80 79 81 84 84 82 83 84 82 79 76 78 87 92 91 86 82 79 77 78 82 85 85 83 80 77 75 73 71 70 70 72 71 70 71 74 70 63 60 58 51 48 52 54 51 50 51 53 53 53 55 59 60 53
89 91 91 91 93 93 95 96 94 90 86 85 88 88 85 84 84 83 81 79 81 84 89 92 90 87 83 79 79 81 84 85 86 85 82 78 76 74 72 71 73 73 71 70 72 71 67 65 62 55 49 50 52 52 51 51 53 53 54 58 63 63 55
93 94 94 94 94 96 98 97 97 96 91 89 90 91 91 90 87 85 85 86 89 89 88 88 88 89 89 86 85 85 84 84 86 87 87 84 81 79 76 73 72 72 73 71 70 72 71 68 65 59 53 50 51 53 53 51 53 53 54 57 60 60 54
95 95 97 98 98 99 100 99 98 97 94 93 92 91 93 94 93 93 93 94 96 96 94 90 87 88 90 90 89 85 83 85 86 86 88 89 87 85 81 78 75 72 72 70 69 72 73 71 68 64 58 52 51 54 55 55 56 57 57 57 55 54 52
98 97 97 97 98 99 100 99 99 98 95 93 93 93 94 95 96 99 99 99 99 99 99 96 91 90 90 91 90 85 82 86 88 86 88 92 93 90 87 83 79 76 73 70 69 70 70 71 70 68 63 56 53 55 55 56 59 60 60 58 55 54 51
100 99 98 98 98 99 99 96 93 94 94 95 94 93 94 95 97 99 100 100 101 100 99 98 95 94 94 93 92 88 85 88 90 89 91 94 95 93 91 88 85 81 77 74 72 69 68 70 72 72 69 61 56 55 54 55 59 61 62 61 60 61 58
100 100 100 100 99 100 99 93 87 86 88 90 89 87 89 92 94 96 98 99 100 100 99 98 97 97 96 95 93 91 90 91 92 94 95 96 97 96 93 91 88 85 81 77 75 72 71 73 74 76 75 67 59 57 57 60 65 66 65 66 70 73 68
100 100 100 100 100 100 98 93 88 85 85 85 85 85 88 91 93 95 97 97 96 97 97 97 97 97 97 97 97 96 95 95 95 96 96 97 99 98 97 95 91 89 87 83 79 76 76 78 77 78 79 72 64 60 61 67 73 73 71 72 78 81 76
100 100 100 100 100 99 99 96 90 88 88 87 86 87 89 93 97 97 97 97 95 95 95 95 95 96 98 99 99 98 98 97 97 98 97 98 100 100 99 98 95 94 96 94 90 85 83 83 81 81 83 78 69 65 66 68 72 74 75 77 79 80 78
100 100 99 99 99 98 99 98 93 92 94 94 94 94 94 96 100 99 98 98 97 97 98 97 95 94 95 96 95 94 95 97 98 99 99 99 100 100 100 99 97 97 99 99 99 95 92 90 88 88 90 86 77 73 71 69 69 72 77 79 77 76 76
100 101 99 99 100 99 99 100 99 96 92 90 92 95 95 95 97 98 99 99 99 99 100 99 98 96 94 94 93 93 96 99 100 100 99 99 100 100 98 98 98 98 99 100 101 99 97 97 96 97 98 94 87 81 79 77 75 75 77 75 73 74 75
99 99 99 99 99 98 97 98 96 87 78 78 86 93 93 93 95 98 99 100 100 100 100 100 100 99 98 98 98 98 99 100 100 100 100 100 99 96 95 97 99 100 100 100 100 100 99 100 100 100 100 99 94 88 85 85 83 81 79 74 71 72 72
95 93 94 95 93 90 90 91 88 80 76 80 89 94 94 94 96 99 100 100 100 100 100 99 100 99 98 98 99 100 100 98 97 99 100 99 98 97 96 98 100 100 100 100 100 100 100 100 100 100 100 100 96 90 89 88 85 82 80 78 77 74 70
94 91 91 92 91 87 87 89 86 83 83 86 91 95 96 96 97 98 99 100 100 97 96 97 98 96 96 97 99 101 99 96 96 99 99 98 99 100 100 100 100 100 100 100 100 100 100 100 100 100 100 99 94 91 89 87 85 85 84 84 83 77 69
96 95 93 93 91 88 90 92 90 88 88 88 90 96 99 97 97 98 99 100 99 96 94 95 95 94 96 99 100 98 96 95 97 98 98 98 100 100 100 100 100 100 100 100 100 100 100 100 100 100 100 98 95 91 90 89 90 90 82 72 63 55 46
96 95 95 93 92 91 93 93 88 86 88 89 89 93 97 98 99 100 100 100 100 97 96 95 93 94 98 99 97 95 95 96 96 96 96 99 100 100 100 101 100 100 100 100 100 100 100 100 100 99 99 98 95 92 92 91 84 72 56 41 35 32 29
95 95 95 95 95 95 95 91 83 80 86 90 89 90 94 98 100 100 100 100 99 98 98 98 97 97 99 99 97 96 97 98 99 97 98 100 99 99 100 100 99 99 99 98 99 99 99 100 100 99 98 97 95 92 86 74 58 44 35 31 31 33 35
96 97 96 97 99 98 96 93 86 85 89 89 89 94 99 98 99 99 98 98 99 98 99 100 99 99 99 99 99 99 99 99 100 100 99 100 98 98 98 97 96 95 95 96 97 97 97 98 98 97 96 92 85 74 59 44 36 34 36 37 37 41 44
99 99 98 99 101 99 98 97 92 91 94 92 92 99 101 96 95 96 94 94 97 98 99 100 100 100 100 100 100 100 100 100 100 100 100 101 99 98 98 98 97 96 95 95 95 94 95 95 93 91 86 73 58 47 39 36 37 39 40 41 42 45 47
100 100 100 101 100 99 101 100 92 92 96 97 97 100 97 92 91 92 92 94 97 99 100 100 100 100 100 100 100 100 100 100 100 100 100 101 100 100 101 99 98 96 96 94 92 91 90 89 85 78 66 51 41 40 41 43 44 44 43 44 45 47 49
100 100 99 98 98 97 100 100 95 94 98 100 100 99 95 90 90 92 95 98 99 99 99 100 100 100 100 99 99 100 100 100 100 100 100 101 101 100 100 98 96 94 93 92 89 88 86 82 73 61 49 41 42 46 48 48 48 47 45 45 47 50 53
99 100 98 96 96 96 97 98 98 99 100 100 100 99 96 94 94 97 100 98 95 96 98 98 99 100 99 98 97 98 99 99 99 100 100 100 100 98 97 96 94 92 92 90 88 86 81 72 59 48 42 43 46 50 51 52 51 49 49 49 51 54 56
93 97 98 97 97 95 94 94 97 99 99 99 100 100 99 98 99 101 101 94 90 94 97 96 97 98 98 97 98 99 99 98 98 99 99 98 97 96 95 93 92 91 90 88 86 81 71 57 45 40 42 45 48 50 52 53 53 52 53 54 55 57 59
85 93 99 100 98 95 94 95 96 98 100 100 100 100 100 100 100 101 98 90 89 95 97 95 96 98 97 97 99 100 99 98 97 97 96 93 92 91 91 89 88 88 85 82 77 67 54 43 38 40 45 49 49 50 51 52 55 56 56 57 58 60 61
82 88 95 101 100 94 95 97 95 95 99 100 100 100 101 100 100 100 95 89 89 95 97 96 97 98 98 99 100 99 98 97 95 93 90 89 87 85 83 81 78 76 72 66 58 48 40 38 40 44 48 51 51 52 53 54 57 57 58 60 62 62 64
87 89 93 99 100 97 96 95 93 94 98 100 100 99 98 98 99 97 94 93 94 96 96 96 97 98 98 99 99 98 96 95 92 89 86 83 81 76 72 66 62 58 54 47 41 38 38 41 43 45 47 49 51 53 55 56 57 58 59 62 64 65 66
93 93 91 90 94 98 98 95 93 95 99 101 100 95 91 93 96 96 96 97 96 95 96 97 97 97 98 97 97 97 96 93 91 88 84 80 78 73 63 52 46 43 41 39 38 39 41 43 45 47 48 49 50 52 53 55 58 61 63 64 66 67 68

ECMWFFLT1_925_rhum_030.txt.gz
RH
85 93 96 98 97 94 92 94 96 92 86 85 83 83 85 83 83 86 85 86 93 99 100 98 98 97 95 97 100 100 100 100 100 99 98 98 97 91 85 77 74 76 71 59 51 46 42 42 44 46 47 48 48 45 42 40 38 35 33 32 32 30 27
87 89 91 96 98 97 96 97 98 95 88 85 82 82 86 86 87 90 91 92 95 97 100 99 97 96 94 97 100 100 100 101 100 100 100 99 100 99 94 87 81 80 80 73 62 55 50 45 44 45 46 47 48 46 44 44 42 39 36 34 32 29 26
87 87 88 92 93 95 97 99 100 99 95 90 86 86 87 88 90 92 94 96 95 92 96 99 96 92 94 98 101 100 100 100 100 100 100 99 98 98 98 95 90 85 85 82 70 58 55 52 48 49 49 49 49 48 47 46 46 43 39 37 36 32 28
86 87 91 92 93 94 96 98 98 100 99 94 90 88 88 88 89 90 90 92 90 87 91 97 93 87 91 98 100 100 100 100 100 100 100 100 97 95 94 94 95 92 89 87 76 60 54 54 53 54 54 54 53 51 49 48 49 48 44 41 41 38 34
85 90 93 89 87 88 89 91 92 93 94 94 90 86 85 86 85 86 88 88 89 90 92 96 92 81 84 97 101 100 100 100 100 100 100 100 99 96 93 89 91 93 92 91 83 66 54 53 54 56 58 58 57 56 53 53 55 53 49 46 44 43 41
84 87 84 77 76 78 77 81 86 86 83 82 82 80 80 82 83 84 87 88 89 91 93 96 94 83 78 88 94 97 100 100 100 101 100 100 100 98 96 90 85 86 88 90 87 71 57 53 54 58 61 60 59 58 57 58 61 59 54 51 50 48 46
81 77 71 69 71 72 70 76 84 83 78 76 77 76 76 76 78 82 86 88 86 86 86 90 94 89 79 76 77 83 94 100 100 100 100 99 99 98 98 96 88 84 84 87 85 74 63 57 53 55 58 59 59 59 58 60 64 65 61 57 55 54 52
82 80 77 76 77 75 75 78 79 75 73 77 79 78 76 73 75 82 86 88 86 82 83 86 91 92 84 75 68 68 81 93 96 99 101 100 100 99 98 98 94 91 88 87 84 76 67 62 56 54 55 57 60 61 61 61 62 65 65 63 61 56 51
84 86 87 88 88 86 84 85 82 74 71 77 83 83 79 74 76 83 87 88 87 84 82 83 87 90 88 83 74 66 71 81 88 94 97 97 99 101 99 97 96 95 93 91 88 80 70 65 62 57 56 59 61 59 59 60 61 63 63 63 63 59 52
87 90 91 93 94 92 89 87 82 71 65 74 89 93 87 81 80 84 88 89 90 88 84 81 81 85 88 87 82 75 73 76 82 89 93 93 93 95 97 97 96 94 92 91 91 86 74 68 65 60 57 59 60 56 55 57 59 61 62 63 65 63 59
91 93 94 94 96 96 95 90 79 67 63 73 90 98 94 89 86 87 90 92 92 90 86 83 82 82 83 84 85 85 80 75 77 83 88 92 91 88 90 92 92 93 92 89 90 87 80 73 68 61 55 56 58 57 54 55 57 59 61 64 66 64 60
96 97 97 98 99 100 101 95 84 79 83 89 95 99 100 98 93 92 93 94 94 91 88 87 85 83 84 84 86 89 86 79 76 77 82 90 92 89 86 85 85 86 87 87 87 86 84 78 72 65 57 53 54 56 54 54 56 58 59 63 64 61 58
99 100 99 99 100 100 102 98 90 90 97 100 98 97 98 100 99 98 97 96 95 93 90 88 86 85 88 89 89 90 89 83 77 74 77 85 92 92 89 85 82 79 80 80 81 83 83 80 75 70 61 53 51 54 55 55 56 57 58 60 61 59 56
100 101 99 98 99 100 101 99 95 96 100 101 99 95 93 97 100 100 99 98 96 94 93 91 90 91 93 92 92 92 89 86 83 81 81 83 88 93 93 89 85 81 78 76 76 77 78 77 75 72 66 57 51 50 52 54 55 56 57 58 60 60 58
101 101 99 98 99 100 101 99 97 99 100 100 99 95 94 97 100 100 100 99 97 96 95 95 94 95 96 95 95 94 88 84 82 83 85 83 85 92 96 93 89 85 82 79 77 75 74 74 74 72 69 63 54 50 50 50 52 54 56 59 63 64 63
100 101 100 100 100 100 101 100 99 100 100 98 94 94 96 99 99 99 100 100 100 99 98 98 98 97 97 97 96 94 90 84 78 79 84 85 84 89 95 93 88 83 81 81 80 79 76 75 74 72 72 67 59 53 51 51 56 58 59 65 72 75 72
100 101 100 100 100 100 100 100 98 99 99 96 93 95 97 97 96 97 98 97 97 98 98 98 98 98 99 100 98 96 93 90 86 85 89 91 90 92 97 97 90 84 82 81 81 82 80 78 76 74 73 72 66 58 53 56 64 67 67 73 80 83 81
100 101 100 101 101 100 101 99 96 97 100 99 98 98 98 97 95 95 95 95 95 96 96 96 95 95 97 98 99 97 95 93 92 93 95 96 96 97 99 100 97 94 92 91 89 88 85 81 79 76 76 75 71 63 57 58 65 69 73 77 79 83 86
101 100 100 100 99 98 100 99 98 99 100 99 99 99 98 99 99 97 97 98 98 97 98 99 97 95 95 96 96 96 96 94 92 95 99 98 98 101 100 98 97 96 96 96 96 96 93 88 84 83 82 81 77 70 63 61 62 67 73 77 78 80 86
100 100 100 98 93 89 91 94 97 98 94 91 93 95 95 97 99 100 100 99 99 99 100 100 99 97 96 96 94 94 96 96 92 94 99 99 99 101 98 95 96 95 94 94 96 98 98 94 92 92 89 88 88 80 70 66 67 68 71 76 78 80 82
97 98 99 96 89 83 81 86 93 94 88 84 87 90 91 93 95 97 99 100 100 100 100 99 100 100 98 97 95 93 94 94 91 93 99 101 100 97 94 94 96 96 95 96 97 99 101 98 97 98 95 95 97 90 77 74 75 73 73 75 76 79 80
95 95 96 95 89 81 78 83 91 93 88 85 87 90 91 91 92 95 99 100 100 100 99 98 97 97 97 97 96 94 93 91 90 93 99 100 97 95 94 95 97 97 98 100 99 100 101 100 100 101 99 100 101 94 85 81 79 77 78 77 76 76 78
95 94 96 96 90 82 81 84 88 90 89 86 89 94 94 93 94 96 98 100 100 100 99 96 94 94 96 97 98 98 96 94 92 95 99 100 98 97 96 97 99 99 100 100 100 100 100 100 100 100 100 101 100 95 89 86 84 84 85 85 84 82 80
96 95 96 96 91 87 87 87 86 85 84 81 86 94 98 97 97 98 98 99 100 100 99 99 97 96 98 100 100 100 99 98 98 99 100 100 100 99 99 100 100 101 100 100 100 100 100 100 100 100 100 101 99 95 91 90 91 92 90 88 87 84 79
96 95 96 96 94 92 93 92 88 85 83 83 88 94 97 97 99 100 99 99 100 100 100 100 98 98 100 100 100 100 100 100 101 99 98 99 100 100 100 100 100 100 100 100 100 100 100 100 100 100 101 100 97 96 95 95 95 94 92 89 84 78 73
97 97 97 96 96 96 97 98 95 89 87 91 95 95 96 99 100 99 97 97 98 99 99 100 99 99 100 100 99 100 100 99 99 97 97 99 100 98 97 97 98 100 100 100 100 100 100 100 100 100 101 100 99 99 97 94 92 91 91 86 74 63 58
99 99 98 98 99 99 99 100 98 89 87 94 99 99 100 100 98 97 96 96 99 100 100 99 99 99 100 100 99 99 99 99 98 98 99 100 99 95 95 95 96 97 97 98 100 100 100 100 100 100 101 101 99 97 95 93 90 87 80 68 54 50 51
100 101 100 99 100 100 100 101 96 87 87 95 100 100 100 97 94 94 95 96 99 101 100 100 100 100 100 100 100 100 100 100 100 100 100 101 99 98 99 98 97 97 98 98 98 99 100 101 100 100 101 100 98 96 94 90 81 71 59 48 46 53 60
100 101 100 100 101 100 100 100 95 89 92 98 100 100 99 95 92 93 95 97 100 100 100 100 100 100 100 100 100 100 100 100 100 100 100 101 100 100 101 101 99 98 99 98 97 99 100 101 101 101 101 100 96 91 82 70 58 51 48 48 51 58 63
100 100 100 100 100 99 99 99 97 95 97 99 100 100 98 95 93 94 96 99 100 100 99 100 100 100 100 100 100 100 100 100 100 100 100 100 100 100 101 101 99 98 98 98 99 100 100 100 100 100 97 93 84 71 60 52 46 46 49 52 55 60 61
98 100 100 100 100 99 97 98 98 98 99 100 100 100 99 98 99 99 100 100 99 98 99 100 100 100 100 99 99 100 100 100 100 100 100 100 100 100 100 100 100 100 99 99 100 100 99 98 97 93 87 79 67 55 50 51 51 51 53 53 53 56 57
96 100 100 100 101 100 98 99 100 100 100 100 100 100 100 100 100 100 100 98 94 96 99 99 98 99 99 99 100 100 100 100 100 100 100 101 101 102 101 99 99 99 98 97 97 98 97 95 92 85 76 66 57 52 54 58 57 56 56 54 53 53 54
87 97 101 100 100 100 98 98 98 99 100 100 100 100 100 100 100 101 99 93 90 95 99 97 97 99 98 99 100 101 100 101 101 100 101 100 100 101 101 99 98 97 95 94 94 93 93 91 86 78 67 58 55 55 58 60 59 58 56 55 55 56 56
82 92 99 101 100 100 99 96 92 94 98 99 99 100 100 100 100 99 95 89 90 95 98 97 97 99 98 99 101 100 99 99 99 99 99 98 98 99 99 99 97 95 94 94 93 91 89 87 80 69 60 58 61 61 59 58 59 58 56 56 56 57 58
91 93 97 99 99 100 99 94 90 92 96 98 100 100 97 95 96 96 94 92 92 95 96 96 97 99 99 99 99 98 97 97 97 96 95 95 96 98 99 99 98 96 94 93 91 89 86 81 72 62 56 57 60 60 58 57 57 56 54 55 56 57 59
98 97 95 92 95 100 101 96 94 96 99 100 101 96 90 89 94 98 98 97 96 96 96 97 97 98 98 98 97 96 95 94 93 92 91 92 93 95 96 98 97 96 94 92 90 87 80 71 63 57 55 56 56 55 53 52 53 54 54 55 58 60 62

ECMWFFLT1_925_rhum_033.txt.gz
RH
60 58 54 60 81 95 93 92 96 99 99 100 100 100 100 99 95 92 91 92 94 96 99 100 100 100 100 99 100 100 100 100 100 100 99 100 99 92 85 79 75 77 73 57 46 44 42 40 40 40 41 45 48 49 50 53 53 46 39 36 33 33 31
61 57 56 66 83 93 95 94 95 97 99 100 100 99 101 99 96 95 94 95 98 99 100 100 100 101 98 97 99 100 100 100 100 100 100 99 101 98 92 85 80 78 78 67 51 43 43 41 40 41 42 43 45 46 49 52 55 55 50 44 38 34 34
69 68 69 78 90 95 94 89 85 87 93 98 101 100 99 99 98 98 98 98 98 97 99 100 99 100 99 98 100 100 100 100 100 100 100 100 100 100 97 92 86 82 81 77 61 48 44 42 41 42 42 43 45 46 49 52 55 60 59 53 46 39 35
78 79 81 87 91 88 82 77 74 75 77 85 97 102 100 99 99 98 98 96 95 94 97 100 100 100 100 99 100 100 100 100 100 100 100 100 100 100 99 96 94 88 84 84 75 58 50 47 45 45 44 45 49 51 52 54 56 60 62 58 53 47 40
80 84 86 87 83 76 69 66 69 74 71 70 83 94 99 101 99 97 96 93 93 93 94 97 98 98 100 100 100 100 100 100 100 100 100 100 100 100 100 99 98 95 89 89 85 69 56 53 50 50 49 48 52 57 58 59 60 60 61 60 59 57 51
81 84 85 85 82 75 69 63 65 73 71 65 71 80 87 96 100 98 96 93 90 89 90 92 93 94 98 100 100 100 100 98 99 100 100 100 100 100 100 99 99 99 95 94 91 77 62 57 54 54 55 54 55 61 65 67 69 68 66 64 63 63 61
81 84 84 86 85 80 73 67 64 68 69 65 67 70 72 79 86 88 87 84 80 79 83 87 89 92 96 99 100 100 96 92 94 98 99 100 100 100 100 100 100 100 99 98 96 84 68 61 59 59 61 62 63 66 70 73 77 80 78 73 70 69 66
82 84 84 86 88 85 82 79 72 69 73 69 64 64 65 66 69 71 71 67 64 66 74 82 88 92 94 96 98 98 93 84 82 89 96 100 100 99 100 100 99 100 100 100 99 90 74 64 62 63 67 71 74 78 79 78 79 84 85 82 80 77 71
84 86 87 87 88 88 89 91 86 80 82 82 72 67 68 68 69 71 70 65 62 64 69 78 86 91 91 90 91 94 92 82 74 77 86 96 100 100 100 100 99 99 98 98 99 93 80 69 64 65 71 78 81 82 82 81 80 81 83 83 83 82 78
89 90 90 91 92 93 93 95 93 87 87 92 90 86 86 86 84 81 79 75 73 74 75 78 85 90 88 85 86 91 92 84 76 73 74 83 95 99 100 100 100 100 97 95 97 93 84 76 70 65 69 77 79 79 79 80 81 82 83 85 86 86 84
93 93 94 96 97 99 99 98 96 94 93 97 99 98 99 99 97 94 91 87 84 82 81 83 86 88 87 86 87 89 91 88 82 76 74 80 91 96 97 99 99 99 98 95 94 91 85 82 77 68 65 71 75 77 78 79 80 81 83 87 89 87 87
97 97 98 101 100 100 100 100 99 99 99 100 100 100 100 100 99 99 98 96 92 89 87 88 91 89 87 89 88 85 87 90 88 84 81 83 90 94 96 98 97 96 96 95 95 92 86 83 81 73 66 66 69 73 76 77 79 80 81 84 85 83 83
100 100 100 101 101 99 99 98 99 100 100 100 100 100 100 99 98 100 100 99 97 95 93 93 94 94 91 90 90 86 85 88 90 91 89 86 86 88 92 97 98 96 93 92 92 93 89 83 80 78 71 66 65 68 72 76 79 81 81 82 82 80 79
100 100 99 99 100 100 99 97 98 100 100 100 100 100 99 99 99 100 100 100 99 98 97 97 96 97 95 92 92 91 87 85 89 96 96 89 83 81 83 90 97 98 97 94 91 91 91 85 80 78 75 70 68 68 70 74 78 79 81 82 81 79 78
99 99 98 99 100 100 100 99 98 100 100 100 100 100 100 100 100 100 100 100 100 100 99 99 97 96 95 93 92 91 89 87 90 97 98 92 87 82 79 82 89 93 95 95 92 89 89 89 85 80 78 75 73 72 71 72 74 75 79 83 84 84 84
100 101 100 101 101 100 100 99 99 100 100 99 100 100 100 100 99 100 100 99 100 100 99 100 99 97 96 95 92 89 90 90 93 97 97 93 91 88 83 81 83 88 92 93 91 88 86 86 85 82 81 79 76 75 73 73 77 78 81 85 88 89 89
100 100 100 101 100 100 101 99 97 100 100 99 100 99 100 100 99 99 100 100 100 100 100 100 100 99 98 96 92 89 90 91 95 98 96 91 89 88 88 86 83 87 94 93 89 86 84 83 82 82 81 79 78 76 72 73 79 81 81 83 86 89 91
101 100 100 100 100 100 100 94 90 96 101 99 98 98 99 100 100 100 99 99 100 100 99 100 100 99 99 98 95 93 92 90 92 98 98 92 88 89 92 90 86 89 96 96 92 89 85 83 83 82 81 79 77 74 70 70 74 76 77 79 80 84 88
101 100 96 95 98 100 96 87 83 92 100 99 96 96 96 96 98 100 100 99 99 99 98 98 98 99 100 99 98 98 96 91 91 97 99 93 90 94 94 90 86 89 93 95 95 95 94 92 89 87 86 83 79 75 70 67 67 68 71 74 76 79 86
100 99 94 90 92 98 94 83 80 89 98 101 98 93 90 90 92 95 97 99 99 99 99 98 97 96 97 99 100 98 94 89 90 96 100 96 93 94 92 87 87 89 87 86 87 92 98 99 95 91 90 87 83 79 72 66 65 65 65 68 73 77 79
96 97 95 90 89 93 93 86 83 86 91 95 98 96 90 89 90 91 92 95 96 97 99 100 99 98 96 96 98 96 91 89 90 95 99 100 96 92 90 89 91 93 91 90 91 94 99 100 98 96 93 89 87 82 73 67 65 64 63 64 69 74 75
96 95 94 92 87 86 88 88 87 89 87 84 88 95 95 91 90 92 93 96 97 98 98 97 98 99 99 99 99 97 92 90 91 92 96 99 97 94 93 92 93 94 96 97 98 99 100 100 99 99 96 92 91 87 77 69 67 66 66 66 66 68 70
96 95 94 92 88 84 87 89 89 93 92 80 75 85 94 95 93 94 96 98 100 100 98 95 92 93 95 96 96 95 93 93 93 92 92 94 94 92 92 94 95 97 99 100 100 100 100 100 100 100 99 96 96 92 83 74 72 71 70 70 72 71 69
96 96 96 95 91 88 90 92 93 96 94 85 78 83 91 94 94 95 98 98 99 100 100 98 96 94 94 95 94 93 94 96 97 96 94 94 95 94 93 95 98 99 100 100 100 100 100 100 99 100 100 99 98 96 89 82 80 79 77 77 78 78 77
97 97 97 95 94 94 94 95 97 95 91 90 90 88 87 89 91 95 99 99 98 100 100 99 100 98 98 99 98 98 97 97 98 99 97 97 97 98 98 98 99 100 100 100 100 100 100 100 100 100 100 99 99 98 93 89 88 88 86 84 83 83 83
98 97 97 95 96 97 97 97 97 92 87 90 94 92 91 94 96 97 99 99 98 100 99 99 99 99 98 100 100 100 100 99 99 99 99 97 98 99 100 100 100 100 100 100 100 100 100 100 100 100 100 100 100 99 96 93 92 93 93 90 87 87 86
98 97 98 99 98 99 99 97 95 92 88 88 93 96 98 100 100 97 96 96 98 100 100 99 100 100 100 100 100 100 100 100 100 100 99 99 100 100 100 100 100 100 100 100 100 100 100 100 100 100 100 100 100 100 98 95 93 94 95 93 89 87 86
100 99 99 100 100 99 100 97 94 93 92 89 93 99 101 99 98 96 95 96 99 100 100 100 100 100 99 99 100 100 100 100 100 100 100 100 100 100 100 100 100 100 100 100 99 100 100 100 100 100 100 100 100 101 101 99 95 94 95 92 87 85 84
99 100 100 100 100 100 100 98 96 97 98 96 97 100 99 97 96 95 96 99 100 100 100 100 100 99 98 99 100 100 100 100 100 100 100 100 100 100 100 100 98 98 99 98 97 99 100 100 100 100 100 100 100 101 101 100 97 94 91 83 75 72 70
99 100 100 100 100 99 100 100 99 98 99 99 99 98 95 95 96 96 98 100 100 99 99 99 99 99 99 99 100 100 100 100 100 100 100 100 100 100 100 99 98 98 99 98 98 99 100 100 100 100 100 100 100 101 100 97 93 89 81 68 60 63 64
99 100 100 100 100 99 98 98 99 99 99 100 100 99 97 98 99 99 100 100 97 96 97 97 99 101 100 100 100 100 100 100 100 100 100 100 101 100 99 99 99 99 99 100 100 100 100 100 100 100 100 100 99 96 91 85 78 72 66 57 54 60 66
100 100 100 99 100 100 98 97 98 100 100 100 100 99 99 100 99 100 100 96 92 93 97 97 98 99 100 100 100 100 100 100 100 100 100 100 101 101 100 99 100 99 98 99 100 100 100 100 100 100 99 97 94 86 75 66 61 59 57 57 59 62 65
99 101 100 99 100 100 98 95 95 97 99 100 100 99 99 100 100 101 99 93 89 92 97 97 97 99 100 100 100 100 100 100 100 100 100 100 100 100 101 102 101 99 98 99 99 100 100 100 100 99 96 91 86 77 65 58 58 60 59 62 65 67 67
94 97 98 99 99 99 98 95 94 97 100 100 99 98 98 98 98 97 95 90 89 93 97 97 98 101 101 100 100 100 100 100 100 100 100 100 100 100 101 102 102 101 100 100 101 100 100 99 98 96 91 84 78 71 64 60 61 63 62 63 65 66 67
96 96 98 99 98 99 100 99 98 99 100 99 99 96 92 90 92 93 93 93 92 94 96 97 98 100 101 100 101 100 100 100 100 100 100 100 100 101 102 102 102 101 101 100 100 99 98 96 94 91 86 79 72 67 65 63 63 62 61 60 60 61 64
99 98 97 95 94 96 99 100 100 101 100 100 99 93 86 84 89 93 95 96 95 95 96 97 98 99 99 99 99 99 99 99 99 99 99 98 98 99 101 101 101 101 101 101 99 98 96 93 90 86 82 76 69 63 61 61 61 60 58 57 56 58 60

ECMWFFLT1_925_rhum_036.txt.gz
RH
54 58 62 66 68 69 66 59 58 76 94 96 96 98 98 93 87 93 100 100 100 100 100 100 100 101 99 96 98 100 99 99 100 100 100 100 100 99 100 101 97 95 89 72 60 56 52 51 51 49 49 52 53 53 50 48 46 42 41 42 42 38 32
60 64 69 74 77 77 74 72 79 91 96 91 87 89 96 96 91 94 100 100 100 100 100 100 100 100 100 99 100 100 99 100 100 100 100 99 100 100 99 100 98 95 94 84 69 60 54 48 47 48 48 49 50 50 47 47 46 44 43 42 42 45 42
68 73 78 82 85 84 83 86 90 90 85 83 82 81 82 90 95 98 100 100 100 100 100 101 100 99 100 100 100 100 100 101 100 100 101 99 100 101 100 100 98 94 92 88 79 69 59 50 46 47 46 46 47 49 47 46 45 44 43 43 43 48 50
72 76 78 80 86 90 89 86 79 72 72 76 82 80 72 75 89 99 101 99 100 100 100 100 100 100 100 100 100 100 100 100 100 100 100 100 100 100 100 100 99 96 92 89 85 76 67 58 50 47 47 46 48 50 49 47 48 48 47 46 46 47 51
72 76 78 78 83 88 85 78 69 66 68 69 72 76 71 69 79 92 100 101 99 100 100 100 100 100 100 100 100 100 100 100 100 100 100 100 100 100 100 100 100 99 95 92 89 80 71 64 57 53 51 49 50 53 54 53 52 51 50 51 53 51 52
74 76 79 80 82 84 83 80 74 69 66 62 62 69 73 71 72 77 88 98 101 100 100 100 100 100 100 100 100 100 101 100 99 100 100 100 100 100 100 100 100 101 99 96 94 86 73 64 61 59 57 55 54 54 56 58 59 58 56 56 59 60 59
77 79 82 83 84 85 86 86 81 72 68 65 63 70 76 73 68 68 73 85 97 101 100 100 100 99 98 100 101 100 100 100 100 100 100 99 100 100 100 101 100 100 100 99 98 93 81 67 61 60 61 59 58 57 56 58 63 68 68 64 65 67 67
84 85 86 87 88 88 88 89 86 78 75 71 66 71 80 72 64 69 73 74 82 92 96 96 94 91 88 90 96 99 98 97 98 100 100 98 99 100 99 100 100 100 100 100 100 98 87 73 64 62 64 66 67 69 66 62 64 71 73 71 70 70 70
89 91 92 92 92 92 92 92 91 85 82 79 72 74 84 77 64 70 79 75 73 78 83 80 74 68 63 66 80 93 98 97 96 99 101 97 97 100 101 100 99 100 100 100 100 98 90 79 70 67 70 74 73 71 70 68 68 71 73 73 74 73 71
95 96 97 96 96 96 96 96 96 93 92 93 91 89 94 91 78 75 82 84 79 74 71 65 58 51 47 49 61 79 94 99 98 99 101 95 86 87 96 101 100 100 100 100 100 98 91 84 78 72 72 75 72 67 70 74 74 75 79 81 84 84 79
98 98 98 98 99 98 99 100 99 99 99 100 100 99 100 100 95 89 89 92 91 82 70 61 55 51 50 50 54 68 86 97 97 97 100 97 81 71 78 90 97 100 100 98 99 97 91 86 82 77 74 75 75 73 73 76 77 80 87 90 91 91 88
99 100 99 99 100 100 100 101 100 101 101 100 100 100 100 100 100 98 97 97 98 91 79 70 63 60 61 60 57 64 81 94 95 93 97 98 86 74 71 74 81 93 99 97 97 97 93 88 84 80 77 77 78 78 78 80 82 84 88 90 89 89 89
100 100 100 101 101 101 100 99 98 99 101 100 100 100 100 100 100 100 100 99 99 97 93 88 84 81 79 74 68 72 83 92 91 89 94 99 93 85 81 76 73 83 93 94 94 95 94 89 85 82 78 76 77 80 82 85 86 86 87 88 88 86 85
100 100 100 100 100 100 99 97 96 99 101 100 100 100 100 100 100 100 100 100 99 100 99 97 96 96 94 89 84 84 89 94 91 86 91 98 98 94 92 86 80 84 94 97 95 94 91 87 85 82 78 75 76 79 81 84 86 86 87 88 87 85 83
100 100 100 100 100 100 100 99 98 100 101 100 100 100 100 100 100 100 100 100 100 100 98 97 97 97 98 97 94 91 93 97 96 91 92 97 100 99 98 94 87 84 91 99 99 96 92 88 86 83 80 77 76 78 79 80 82 84 86 88 89 89 88
101 101 100 100 100 100 100 99 99 100 100 100 100 100 100 100 100 100 100 100 100 99 98 98 96 94 95 97 97 96 96 97 97 97 98 99 100 100 100 98 89 78 78 86 94 97 96 92 88 85 84 82 80 80 81 83 86 89 90 92 95 97 97
100 100 100 101 100 100 101 100 100 100 100 100 100 99 100 100 100 100 100 100 100 99 99 99 97 95 96 99 100 98 97 99 100 100 100 100 100 100 100 99 92 80 75 78 86 96 99 95 92 91 89 87 86 83 82 86 93 96 94 94 96 98 100
99 97 97 98 97 97 99 98 97 97 97 99 100 99 98 100 100 100 99 100 100 100 100 100 99 99 100 100 100 100 99 100 100 100 100 100 100 99 100 100 95 88 86 85 87 96 99 96 94 93 91 91 91 88 85 87 91 94 94 94 93 94 98
100 97 94 94 93 92 93 93 91 90 91 97 101 99 95 95 98 101 100 100 101 100 99 100 100 100 101 100 100 100 100 100 100 100 100 100 100 100 100 100 94 88 91 94 94 98 100 97 95 93 92 92 92 90 89 88 87 88 90 91 90 91 94
99 98 94 91 90 89 88 89 91 89 88 91 97 98 97 93 92 95 97 97 99 100 100 100 100 99 99 100 100 100 100 100 98 99 100 99 100 101 98 96 92 87 88 91 93 97 101 99 97 94 90 91 93 92 90 90 88 86 85 86 89 89 88
97 98 95 90 88 88 87 87 91 92 89 91 93 94 97 98 93 91 92 91 92 95 97 98 99 100 99 99 100 100 99 96 94 96 100 101 98 96 95 93 92 89 89 91 92 96 100 100 98 96 91 90 93 93 90 90 90 87 83 83 84 85 86
97 97 96 90 85 86 86 86 91 94 94 97 98 93 94 98 96 92 93 94 93 93 94 94 94 95 96 98 100 98 94 92 90 92 98 101 96 91 92 93 91 90 92 95 95 98 101 100 100 100 96 93 93 92 89 88 88 85 83 82 80 79 80
97 97 96 92 88 87 87 88 93 98 98 99 99 97 97 98 94 92 93 96 98 98 97 95 90 86 87 92 98 98 94 92 90 87 92 99 98 92 92 93 92 92 95 98 99 100 100 100 100 100 99 98 95 91 87 85 84 82 81 82 81 78 75
98 97 98 96 93 91 91 93 98 99 95 92 94 99 100 95 89 91 94 94 95 97 97 95 93 90 88 91 97 98 97 97 96 92 92 96 97 95 95 97 96 96 98 99 100 100 100 100 100 100 100 99 96 92 88 83 80 80 80 81 80 79 76
99 98 97 97 97 96 95 97 99 95 90 90 96 100 100 94 91 95 99 98 96 97 98 97 98 98 97 97 98 98 97 96 95 95 95 95 97 97 99 100 100 99 100 100 100 100 100 100 100 100 99 97 94 93 89 84 81 82 82 81 80 79 78
98 98 98 97 98 98 97 98 98 93 90 94 99 100 100 99 99 100 100 99 99 99 100 100 100 100 100 99 99 99 99 96 93 93 93 93 96 97 98 99 101 100 100 100 100 99 100 100 100 100 100 98 96 94 90 86 84 85 87 85 82 81 83
99 99 99 99 99 98 97 99 97 92 91 96 99 100 99 99 99 99 99 100 100 100 100 100 100 100 100 100 100 100 100 99 98 98 96 95 96 97 97 99 100 99 99 100 100 100 100 100 100 100 100 100 99 97 94 89 86 86 90 90 85 86 92
100 100 100 100 100 99 99 100 96 91 95 100 100 99 98 96 96 98 99 100 100 100 100 100 100 100 100 99 99 100 100 100 100 100 100 99 99 99 100 100 100 100 99 100 100 100 100 100 100 100 100 100 100 100 98 95 90 89 92 92 89 90 97
100 100 100 100 100 100 100 101 97 94 98 100 97 96 97 96 98 99 99 100 100 100 100 99 98 98 99 99 98 99 100 100 100 99 100 100 100 100 100 100 100 100 100 100 100 100 100 100 100 100 100 100 100 100 100 99 95 92 93 94 91 92 94
100 100 100 100 100 99 98 100 100 99 100 100 98 98 99 99 100 100 99 100 100 99 96 95 95 97 99 99 99 100 100 100 100 99 100 100 100 100 100 100 100 100 100 100 100 100 100 100 100 100 100 100 100 100 101 100 97 94 94 93 91 91 92
100 100 100 100 100 97 95 96 98 98 98 98 98 98 99 99 100 100 99 98 97 96 94 94 96 99 100 100 100 100 100 100 100 100 100 100 100 100 101 100 100 100 100 100 100 100 100 100 100 100 100 100 100 101 101 101 98 95 94 92 90 90 89
100 100 99 100 100 98 95 95 96 96 96 96 97 98 100 100 99 99 98 95 92 93 96 97 98 100 100 100 100 100 100 100 100 100 100 100 100 101 101 101 101 100 100 100 100 100 101 101 100 100 100 100 100 100 101 100 97 94 91 89 89 88 85
96 100 100 100 100 99 99 98 98 98 98 98 99 99 98 96 95 94 94 92 90 92 98 100 100 100 100 100 100 100 100 100 100 100 100 100 100 100 100 101 101 101 100 100 100 100 100 100 100 100 100 101 100 99 99 97 93 89 85 82 82 82 80
88 94 98 101 100 99 100 100 99 100 100 100 100 100 96 92 90 90 89 89 91 95 99 100 100 101 100 100 100 100 100 100 100 100 99 99 99 100 100 100 101 101 101 101 101 100 99 100 100 100 100 100 99 96 94 92 87 82 79 76 76 78 78
92 92 95 100 101 100 100 100 99 100 100 99 98 95 89 86 88 90 91 91 92 95 99 100 100 100 100 100 100 99 99 99 99 99 97 96 97 99 100 100 100 101 101 101 100 100 99 99 100 100 98 97 94 91 87 83 79 76 74 72 73 75 77
98 96 94 96 99 99 99 100 100 101 101 99 96 89 85 87 93 97 97 97 97 97 98 99 100 99 99 99 99 98 98 98 98 98 98 97 96 98 99 100 100 100 100 101 101 101 100 100 99 98 96 93 90 85 81 76 73 73 72 70 69 71 71

ECMWFFLT1_925_rhum_039.txt.gz
RH
49 51 53 56 59 61 61 64 67 68 70 69 66 64 69 83 95 96 96 97 96 96 97 93 92 96 100 100 99 100 99 100 100 99 99 100 100 99 100 100 98 94 88 79 71 65 62 63 67 72 81 88 85 77 69 60 52 48 45 44 45 41 32
53 54 59 64 67 69 71 74 78 79 79 78 78 80 87 95 95 92 92 96 97 91 86 88 93 99 100 100 100 99 100 99 95 95 98 99 100 100 99 100 99 96 93 87 79 70 63 61 64 67 73 82 86 85 82 75 64 55 48 45 45 42 35
58 58 63 70 73 74 76 78 84 91 91 89 91 94 95 93 93 94 92 92 97 94 86 88 96 100 99 98 99 100 100 98 94 94 98 99 100 100 99 99 99 98 96 91 86 77 66 60 60 63 67 74 81 86 87 86 81 71 61 53 49 45 40
63 62 64 67 71 74 74 75 82 90 91 91 92 92 91 90 91 94 91 88 92 95 92 91 96 100 98 97 99 100 100 100 99 99 99 99 99 100 100 100 99 99 98 94 91 84 75 67 62 61 66 73 81 86 87 88 90 88 81 72 64 56 49
66 67 69 69 71 73 74 76 80 83 81 79 82 88 91 92 90 90 90 86 84 89 94 96 98 99 99 99 100 100 100 100 100 100 99 100 100 100 100 100 99 100 99 98 96 89 82 75 66 62 64 70 79 87 90 90 90 90 89 87 82 75 68
70 72 73 73 75 75 76 80 82 83 79 73 73 79 83 86 90 91 90 87 80 78 85 95 100 100 99 100 100 99 100 99 99 100 100 100 100 99 100 100 100 100 99 100 99 93 85 78 72 66 63 65 74 83 90 94 95 92 90 88 84 81 77
77 78 78 79 80 81 82 84 86 86 81 71 66 68 68 75 88 93 89 83 77 73 78 88 98 101 99 100 101 99 99 99 99 100 100 100 100 100 100 100 99 100 100 100 100 96 89 82 77 73 67 65 69 76 82 88 94 95 91 87 83 80 77
86 87 87 87 87 88 89 90 92 92 87 77 70 69 66 69 81 88 81 69 67 76 83 84 89 99 101 99 99 99 99 99 99 100 100 100 100 99 100 100 99 100 100 99 100 98 91 83 77 74 73 72 71 74 78 79 82 87 87 86 85 82 78
95 96 96 96 95 96 96 97 97 96 94 89 81 77 74 70 74 84 82 69 62 71 81 79 79 91 100 100 100 100 100 98 95 96 98 99 100 100 100 100 99 99 99 99 100 100 94 84 74 69 74 79 77 74 73 73 76 81 82 84 86 84 80
100 100 99 100 100 99 99 99 97 96 98 98 94 91 89 85 85 91 95 88 73 67 70 73 75 79 88 96 98 96 96 95 93 95 97 97 98 99 100 100 100 99 98 98 99 100 97 89 77 69 71 77 76 72 72 75 77 78 79 84 88 86 83
100 100 100 100 101 100 100 98 94 96 100 101 100 99 99 98 98 98 99 97 86 72 64 67 71 70 71 79 83 82 80 81 85 93 98 98 97 96 97 99 100 100 99 98 98 98 98 94 85 74 69 71 73 73 75 77 78 77 80 86 85 83 83
100 100 100 100 101 101 100 98 95 98 101 100 100 100 99 100 100 99 101 100 94 85 74 67 68 69 66 64 67 70 70 69 71 79 88 96 99 98 97 98 99 99 98 98 99 98 97 95 90 82 74 71 72 73 74 77 79 78 81 84 80 77 79
100 100 100 100 101 100 100 99 98 100 101 99 100 100 99 100 100 99 100 100 98 95 86 74 71 73 68 59 59 64 67 65 63 65 76 91 99 100 98 99 100 96 91 89 93 97 98 95 91 87 81 75 73 73 73 78 81 79 80 82 79 75 75
100 100 100 100 100 100 100 100 99 100 100 100 100 100 100 100 100 100 100 100 100 96 87 78 76 76 69 59 56 56 59 65 65 63 71 87 98 101 98 99 101 98 90 86 87 89 91 93 91 87 84 80 76 75 74 77 79 78 79 81 79 77 77
100 100 100 101 101 100 100 99 100 100 100 100 100 100 100 99 100 100 100 99 101 99 89 79 77 77 70 62 58 53 52 65 76 77 80 89 98 100 99 99 100 97 94 93 92 90 89 91 90 86 84 83 79 77 76 75 76 77 79 83 84 84 84
100 100 100 99 100 101 100 96 96 99 100 100 100 99 100 100 100 100 100 100 99 101 97 86 81 80 71 61 58 54 54 71 89 94 95 98 99 99 100 100 97 94 93 93 94 95 93 91 91 89 87 86 84 83 81 80 82 84 85 87 90 92 93
100 100 100 98 97 100 99 93 91 95 98 99 100 100 99 100 100 99 100 100 99 100 101 94 85 79 72 66 62 56 60 79 96 100 99 100 100 99 100 100 95 93 93 90 90 94 94 94 96 96 92 91 91 89 86 87 90 91 91 91 91 93 97
99 96 95 96 95 97 98 94 88 90 94 96 99 100 99 100 101 100 100 100 99 100 101 97 88 80 75 71 63 60 71 88 98 100 100 100 100 99 100 100 97 96 96 92 92 96 97 97 99 99 96 96 96 94 89 89 90 91 92 91 88 89 95
100 97 93 94 93 92 94 94 90 88 90 94 98 100 100 99 99 99 100 100 100 100 100 99 95 90 85 78 70 72 85 95 98 100 100 99 100 100 99 98 98 99 98 96 96 99 99 99 100 100 99 99 99 97 93 90 89 90 91 90 87 88 92
101 99 95 93 92 89 87 90 91 89 89 94 98 100 99 99 98 96 96 97 99 100 100 100 99 97 94 93 91 91 94 96 98 100 100 99 100 100 98 97 98 99 98 98 99 100 100 100 98 97 99 100 99 99 98 95 92 90 89 89 89 89 88
100 99 94 91 90 89 86 87 91 92 91 93 98 99 99 100 99 95 91 91 92 93 94 97 100 100 98 98 99 99 98 98 98 98 99 100 99 96 96 98 99 99 99 99 100 100 100 100 98 96 99 100 100 100 100 98 95 92 90 89 89 89 88
97 97 95 90 89 89 88 87 91 96 96 94 96 100 99 99 100 96 90 87 87 89 89 89 92 96 99 100 100 99 97 95 95 96 99 100 97 93 95 99 99 99 100 100 100 100 100 100 99 99 100 100 100 100 100 100 98 95 94 92 90 87 87
96 97 95 92 89 89 89 89 93 99 97 90 90 97 98 97 98 96 90 85 86 90 92 92 92 92 92 95 98 98 96 95 95 97 98 99 98 95 95 98 100 100 100 100 100 100 100 100 100 100 100 100 100 100 100 100 100 99 97 97 95 91 88
96 96 94 91 90 89 89 93 98 99 93 87 90 97 99 95 93 90 89 90 92 93 94 96 97 92 87 88 93 95 97 97 98 98 98 98 100 98 98 99 100 100 100 100 100 100 100 100 100 99 100 100 100 100 100 100 100 100 100 99 98 95 91
95 94 92 92 93 91 92 97 98 94 91 92 96 100 99 96 92 91 94 98 97 95 94 95 96 95 93 94 96 97 97 97 97 97 98 98 100 100 100 100 100 99 100 100 99 100 100 99 100 99 98 97 97 99 101 100 100 100 100 99 97 94 92
96 95 95 95 95 94 97 99 94 89 93 97 99 100 100 99 98 98 99 100 98 97 97 98 99 99 99 99 100 99 100 99 98 97 97 98 100 99 100 100 100 100 100 100 99 99 99 99 100 100 98 96 95 97 98 98 98 99 98 97 94 92 91
98 98 98 98 98 98 98 98 94 93 97 99 99 99 99 97 97 97 97 98 99 100 100 99 100 100 100 100 100 100 100 100 100 99 98 99 99 99 99 100 99 98 97 96 95 96 97 99 100 99 100 99 98 97 96 94 94 94 95 95 91 89 92
99 100 99 99 100 99 99 99 99 99 100 99 98 98 98 97 97 97 97 98 99 99 100 100 100 100 100 100 100 100 100 100 100 100 100 100 100 99 99 100 99 98 94 92 93 95 98 100 100 99 100 100 99 99 98 96 93 91 91 91 89 89 94
99 99 100 100 100 100 100 100 99 99 99 98 98 99 100 99 100 99 99 100 100 100 99 98 97 98 99 99 99 99 100 100 100 100 100 100 100 99 99 100 100 99 97 96 97 97 97 98 100 100 99 100 100 100 99 98 96 92 91 92 90 89 93
100 100 99 99 99 99 100 99 98 96 96 96 97 98 99 99 100 100 98 98 99 97 93 92 94 97 99 99 99 99 99 99 100 100 100 100 100 100 100 100 100 100 99 100 99 98 98 99 100 99 99 100 100 100 99 100 97 93 92 93 91 91 94
100 100 100 100 100 99 99 99 99 98 98 98 98 98 99 100 100 97 95 94 94 92 90 91 96 99 100 99 99 100 100 100 100 100 100 100 100 100 100 100 100 100 100 100 100 99 99 100 99 99 100 100 99 100 100 100 100 98 96 94 92 92 95
100 100 100 99 100 100 99 99 100 100 100 100 100 99 100 99 95 91 90 89 88 88 92 96 97 99 100 100 99 100 100 100 100 100 100 100 100 100 100 100 100 100 99 100 100 100 99 100 100 100 100 99 99 100 100 100 101 101 99 97 94 94 95
94 100 102 99 99 100 100 100 100 100 100 100 100 100 99 95 89 87 88 88 86 90 96 99 99 100 101 100 100 100 100 100 100 100 100 100 100 100 100 100 100 100 100 100 100 100 100 100 99 99 100 100 100 100 100 101 101 101 99 97 96 96 97
83 93 100 101 100 100 100 100 100 100 100 100 98 96 91 86 85 86 88 89 92 96 100 100 100 100 100 100 100 101 100 100 100 100 100 100 100 99 100 100 100 100 100 101 101 100 100 99 99 100 99 99 100 100 100 101 100 100 99 97 95 96 96
89 90 96 100 101 100 100 100 100 100 100 99 96 90 82 80 86 92 94 95 98 99 100 101 101 100 100 101 101 100 100 100 100 99 98 98 100 100 100 100 100 100 100 101 101 100 100 100 100 101 99 98 98 99 100 100 100 98 97 96 95 95 94
97 95 96 99 100 97 97 99 101 101 98 97 96 92 86 87 96 100 99 99 100 100 100 101 101 101 101 101 100 100 101 100 100 98 97 98 100 100 100 100 100 100 100 101 101 101 101 100 100 101 100 99 99 99 99 99 98 97 95 94 93 93 91